sat.trackr.live / text

‹ back to catalog

LEAP-1

NORAD 65321 · 2025-188G

PAYLOAD ACTIVE UNKNOWN

§ Identity

Operator
Country
IND
Launch date
2025-08-26
Launch site
AFWTR
Launch vehicle
Mass (kg)
RCS (m²)

External: N2YO · Heavens-Above · Gunter

§ Orbital elements

Epoch: 2026-05-25T04:17:41.876160Z

Period
96.55 min
Inclination
97.7368°
Eccentricity
0.0001570
Mean motion
14.91409112 rev/d
Perigee alt
592.4 km
Apogee alt
594.6 km
Semi-major
6,971.7 km
B*
1.9161e-4
RAAN
220.0055°
Arg perigee
294.3642°
Mean anomaly
65.7413°
Rev number
4,042

§ Raw data

LEAP-11 65321U 25188G   26145.17895690  .00001858  00000+0  19161-3 0  99962 65321  97.7368 220.0055 0001570 294.3642  65.7413 14.91409112 40424

JSON: /api/v1/satellites/65321 · /tle

For live sub-satellite position, see the globe view (requires WebGL).

§ Visibility from observer

Set your observer location to see the next 7 days of passes ≥ 10°. The values pass through the URL so the page stays shareable.

No JS? Fill the form by hand. The geolocation button needs JavaScript.